Tracking 20242 objects as of 25-Jan-2020
HD Live streaming from Space Station
objects crossing your sky now

SL-8 DEB

Track SL-8 DEB now!
10-day predictions


NORAD ID: 25085
Int'l Code: 1991-009CX
Perigee: 1,442.3 km
Apogee: 1,729.9 km
Inclination: 74.1 °
Period: 117.7 minutes
Semi major axis: 7957 km
RCS: 0.0159 m2 (small)
Launch date: February 12, 1991
Source: Commonwealth of Independent States (former USSR) (CIS)
Launch site: PLESETSK MISSILE AND SPACE COMPLEX (PKMTR)

Note: This is SATELLITE DEBRIS
aabbcc
Your satellite tracking list
Your tracking list is empty




NASA's NSSDC Master Catalog

Two Line Element Set (TLE):
1 25085U 91009CX  20022.12878653 -.00000106  00000-0 -80182-3 0  9996
2 25085  74.1093 273.6255 0180704 243.6639 271.5252 12.23117484125420
Source of the keplerian elements: AFSPC